Погода в Подстране

Хорватия     43°28′57″N   16°35′02″E
темп.,
°C
ветер,
м/с
пор.,
м/с
влажн.,
%
обл.,
%
осадки,
мм/ч
давл.,
гПа
погр.,
м
25 февраля, чт
чт2501:00+12св33610 0.0 103326
04:00+11св33610 0.0 103225
07:00+11ссв22620 0.0 103222
10:00+15вюв11540 0.0 1031141
13:00+16ююз22550 0.0 1031268
16:00+15юз11660 0.0 1030135
19:00+12ссв11780 0.0 103023
22:00+12ссв117757 0.0 103122
26 февраля, пт
пт2601:00+11с118042 0.0 103122
04:00+11ссв11810 0.0 102922
07:00+10ссв12760 0.0 102922
10:00+14вюв01610 0.0 1028183
13:00+15юз22600 0.0 1027285
16:00+14зюз22680 0.0 1026164
19:00+12ссв11790 0.0 102623
22:00+12ссв11780 0.0 102623
27 февраля, сб
сб2701:00+11ссв11760 0.0 102623
04:00+10св23720 0.0 102627
07:00+10св44720 0.0 102556
10:00+15св34610 0.0 1026310
13:00+16св24540 0.0 1025640
16:00+16св24580 0.0 1024607
19:00+12св45666 0.0 102674
22:00+10св55710 0.0 1027117
28 февраля, вс
вс2801:00+8св56670 0.0 1028163
04:00+7св56680 0.0 1028160
07:00+6св56670 0.0 1029151
10:00+10св45500 0.0 1029386
13:00+13ссз12350 0.0 1029666
16:00+12з44580 0.0 1028242
19:00+10всв12680 0.0 102983
22:00+8св33590 0.0 103072
1 марта, пн
пн101:00+6св44650 0.0 103183
04:00+5св33650 0.0 103073
07:00+5св33591 0.0 103168
10:00+10св12410 0.0 1030252
13:00+12юз21401 0.0 1030492
16:00+10зюз226356 0.0 1029283
19:00+9ссз117243 0.0 103087
22:00+8св22620 0.0 103260